Glonass Operational
NORAD ID: 32394
Int'l Code: 2007-065B
Perigee: 19,085.2 km
Apogee: 19,188.5 km
Inclination: 65.5 °
Period: 675.7 minutes
Semi major axis: 25507 km
Launch date: December 25, 2007
Source: Commonwealth of Independent States (former USSR) (CIS)
SV:
Comments: Glonass is a radio satellite navigation system, the former Soviet and now Russian counterpart to the United States' GPS system and the European Union's embryonic Galileo positioning system. It is operated for the Russian government by the Russian Space Forces.
Two Line Element Set (TLE):
1 32394U 07065B 13169.14796362 -.00000018 00000-0 10000-3 0 3153
2 32394 065.5260 353.6769 0020254 007.4408 033.4092 02.13103866 42582
Source: AFSPC
NASA's NSSDC Master Catalog entry for COSMOS 2435 (GLONASS)